Hourly Data Report for November 22, 2016

CARBERRY CS
MANITOBA

49°54'20.900" N
99°21'26.800" W
383.50 m
5010547
71170
WZE

Download Data

Hourly Data (November 2016)
Hourly Data Report for November 22, 2016
TIME
LST
Temp Definition
°C
Dew Point Definition
°C
Rel Hum Definition
%
Precip. Amount Definition
mm

Wind Dir Definition
10's deg

Wind Spd Definition
km/h
Visibility Definition
km
Stn Press Definition
kPa
Hmdx Definition


Wind Chill Definition


Weather Definition


00:00 -0.3 -5.8 66 0.0 15 21   96.63   -6 LegendNANA
01:00 -0.1 -5.0 70 0.0 14 20   96.60   -5 LegendNANA
02:00 0.2 -3.7 75 0.0 15 20   96.58     LegendNANA
03:00 0.2 -3.8 74 0.0 15 18   96.60     LegendNANA
04:00 0.2 -3.6 76 0.0 15 15   96.57     LegendNANA
05:00 0.0 -3.0 80 0.0 15 12   96.56   -4 LegendNANA
06:00 0.5 -1.9 84 0.0 16 14   96.56     LegendNANA
07:00 0.7 -1.6 85 0.0 16 15   96.56     LegendNANA
08:00 0.8 -1.3 86 0.0 19 11   96.65     LegendNANA
09:00 1.2 -1.0 86 0.0 18 11   96.70     LegendNANA
10:00 1.4 -0.9 84 0.0 20 14   96.72     LegendNANA
11:00 2.1 -0.8 81 0.0 22 8   96.72     LegendNANA
12:00 2.3 -1.5 76 0.0 24 12   96.71     LegendNANA
13:00 2.1 -1.7 76 0.0 26 15   96.75     LegendNANA
14:00 2.0 -2.1 74 0.0 24 12   96.75     LegendNANA
15:00 2.4 -2.1 72 0.0 26 17   96.79     LegendNANA
16:00 2.0 -2.3 73 0.0 26 17   96.88     LegendNANA
17:00 1.4 -2.5 75 0.0 30 16   96.98     LegendNANA
18:00 1.2 -2.4 77 0.0 29 16   97.03     LegendNANA
19:00 0.6 -2.7 79 0.0 36 11   97.11     LegendNANA
20:00 0.1 -2.9 80 0.0 33 7   97.17     LegendNANA
21:00 -0.2 -2.9 82 0.0 33 4   97.22   -1 LegendNANA
22:00 -0.3 -2.8 83 0.0 35 4   97.27   -2 LegendNANA
23:00 -0.6 -3.0 84 0.0 31 4   97.29   -2 LegendNANA

Notes on Data Quality.

Legend

  • E = Estimated
  • M = Missing
  • NA = Not Available*
  • [empty] = Indicates an unobserved value
Date modified: